TimeMST,TemperatureF,Dew PointF,Humidity,Sea Level PressureIn,VisibilityMPH,Wind Direction,Wind SpeedMPH,Gust SpeedMPH,PrecipitationIn,Events,Conditions,WindDirDegrees,DateUTC
12:48 AM,62.1,34.0,35,29.82,10.0,Calm,Calm,-,N/A,,Clear,0,2011-10-15 07:48:00
1:48 AM,57.9,34.0,41,29.82,10.0,South,3.5,-,N/A,,Clear,180,2011-10-15 08:48:00
2:48 AM,61.0,33.1,35,29.81,10.0,SSW,3.5,-,N/A,,Clear,210,2011-10-15 09:48:00
3:48 AM,54.0,36.0,51,29.82,10.0,Calm,Calm,-,N/A,,Clear,0,2011-10-15 10:48:00
4:48 AM,53.1,37.0,55,29.83,10.0,Calm,Calm,-,N/A,,Clear,0,2011-10-15 11:48:00
5:48 AM,53.1,36.0,52,29.85,10.0,Calm,Calm,-,N/A,,Clear,0,2011-10-15 12:48:00
6:48 AM,52.0,36.0,54,29.87,10.0,Calm,Calm,-,N/A,,Clear,0,2011-10-15 13:48:00
7:48 AM,63.0,39.0,41,29.86,10.0,Calm,Calm,-,N/A,,Clear,0,2011-10-15 14:48:00
8:48 AM,71.1,39.0,31,29.88,10.0,Calm,Calm,-,N/A,,Clear,0,2011-10-15 15:48:00
9:48 AM,79.0,36.0,21,29.87,10.0,SSW,4.6,-,N/A,,Clear,200,2011-10-15 16:48:00
10:48 AM,84.0,30.9,15,29.87,10.0,WSW,6.9,-,N/A,,Clear,250,2011-10-15 17:48:00
11:48 AM,87.1,28.0,12,29.84,10.0,SW,10.4,-,N/A,,Clear,230,2011-10-15 18:48:00
12:48 PM,88.0,25.0,10,29.83,10.0,SW,18.4,23.0,N/A,,Clear,220,2011-10-15 19:48:00
1:48 PM,89.1,25.0,10,29.81,10.0,SW,21.9,25.3,N/A,,Clear,230,2011-10-15 20:48:00
2:48 PM,88.0,27.0,11,29.80,10.0,SW,13.8,20.7,N/A,,Clear,220,2011-10-15 21:48:00
3:48 PM,87.1,28.9,12,29.81,10.0,SW,15.0,-,N/A,,Clear,230,2011-10-15 22:48:00
4:48 PM,84.9,28.0,13,29.81,10.0,SW,16.1,-,N/A,,Clear,230,2011-10-15 23:48:00
5:48 PM,80.1,30.0,16,29.82,10.0,SW,10.4,-,N/A,,Clear,230,2011-10-16 00:48:00
6:48 PM,72.0,30.9,22,29.86,10.0,SSW,9.2,-,N/A,,Clear,200,2011-10-16 01:48:00
7:48 PM,68.0,32.0,26,29.86,10.0,South,8.1,-,N/A,,Clear,170,2011-10-16 02:48:00
8:48 PM,66.0,32.0,28,29.85,10.0,South,9.2,-,N/A,,Clear,180,2011-10-16 03:48:00
9:48 PM,64.0,32.0,30,29.86,10.0,SSE,10.4,-,N/A,,Clear,160,2011-10-16 04:48:00
10:48 PM,64.9,32.0,29,29.85,10.0,South,9.2,-,N/A,,Clear,170,2011-10-16 05:48:00
11:48 PM,62.1,32.0,32,29.84,10.0,Calm,Calm,-,N/A,,Clear,0,2011-10-16 06:48:00